Aérodrome :
LOGIN :

S'inscrire | Disclaimer

   EN    FR    IT 

 










Légende :    VFR   VFR Marginal   IFR   IFR Intensif   IFR Très Intensif
Visi : 
Plafond : 
>= 8 km
>= 3000ft
5 à 8 km
1000 à 3000 ft
1500m à 5 km
500 à 1000 ft
800 à 1500m
200 à 500 ft
< 800m
< 200 ft
Symboles :   Orages  Brouillard  Fortes neiges  Fortes précipitations  Vent > 20 kt
SIGMETs :   Divers  Orages  Givrage  Turbulence  Onde Orograph.  Cendres Volcan.







- Altitude de l'aérodrome : 1416 ft
- Code IATA : ZRH


LSZH - Zurich

DERNIER METAR :
  • 221550Z VRB02KT CAVOK 10/02 Q1013 NOSIG

METARs EXPIRÉS :
  • 221520Z 31002KT CAVOK 13/01 Q1013 NOSIG
  • 221450Z 18003KT CAVOK 13/02 Q1013 NOSIG
  • 221420Z VRB03KT CAVOK 14/02 Q1013 NOSIG
  • 221350Z 16004KT 130V210 CAVOK 14/03 Q1013 NOSIG
  • 221320Z VRB03KT CAVOK 14/02 Q1014 NOSIG

TAF TAF LSZH
Valide du 22 à 15h jusqu'au 23 à 21h UTC


221425Z 2215/2321 17005KT CAVOK TX12/2215Z TN00/2306Z TX13/2314Z
PROB40 2302/2306 4000 MIFG
PROB30 2304/2308 1500 BCFG SCT002
ATIS : +41 43 816 2295 (DEP) +41 43 816 2294 (ARR)
Pas de NOTAMs connus pour ce terrain.



MET'MAP, la Météo Aéronautique d'un coup d'oeil ! - Copyright ORBIFLY Décembre 2007 - Disclaimer

ORBIFLY MET'MAP TEAM :

Programmation & Développement : Alexandra Zaïnal
Conception & Développement : Baudouin d'Aumeries
Co-Programmation & Développement : Marc-Olivier Méhu
Soutien technique & logistique : Manuel Goepfert

Contact : metmap@orbifly.com




SOURCES & CREDITS :

   NOAA